Cloud_Cover
5 5 5 5 5 34 54 90 100 100 100 100 100 100 100 100 100 100 100 100 100 100 100 100 100 100 100 100 100 100 100 100 100 100 100 100 100 100 100 100 100 100 100
5 5 5 5 5 5 59 86 94 100 100 100 100 100 100 100 100 100 100 100 100 100 100 100 100 100 100 100 100 100 100 100 100 100 100 100 100 100 100 100 100 100 100
1 5 5 5 5 2 62 86 100 98 91 100 100 100 100 100 100 100 100 100 100 100 100 100 100 100 100 100 100 100 100 100 100 100 100 100 100 100 100 100 100 100 100
0 5 5 5 5 6 56 72 93 99 98 100 100 100 100 100 100 100 100 100 100 100 100 100 100 100 100 100 100 100 100 100 100 100 100 100 100 100 100 100 100 100 100
0 1 5 5 5 5 12 61 73 96 97 100 100 100 100 100 100 100 100 100 100 100 100 100 100 100 100 100 100 100 100 100 100 100 100 100 100 100 100 100 100 100 100
0 0 2 5 5 5 5 2 36 64 92 90 100 100 100 100 100 100 100 100 100 100 100 100 100 100 100 100 100 100 100 100 100 100 100 100 100 100 100 100 100 100 100
0 3 2 0 2 5 5 5 5 5 42 79 83 96 100 100 100 100 100 100 100 100 100 100 100 100 100 100 100 100 100 100 100 100 100 100 100 100 100 100 100 100 100
0 2 5 0 0 4 5 5 5 5 5 5 30 48 86 97 95 100 98 100 100 100 100 100 100 100 100 100 100 100 100 100 100 100 100 100 100 100 100 100 100 100 100
0 0 0 0 0 0 4 5 5 5 5 5 5 5 5 8 68 84 86 93 100 100 100 100 100 100 100 100 100 100 100 100 100 100 100 100 100 100 100 100 100 100 100
0 0 0 0 0 2 2 5 5 5 5 5 5 5 5 5 6 75 66 83 100 100 100 100 100 100 100 100 100 100 100 100 100 100 100 100 100 100 100 100 100 100 100
0 0 0 0 0 1 4 5 5 5 5 5 5 5 5 5 4 10 5 40 97 95 99 100 93 96 100 100 100 100 100 100 100 100 100 100 100 100 100 100 100 100 100
0 0 0 0 0 1 1 5 5 5 5 5 5 5 5 5 5 5 5 5 8 53 86 87 65 46 82 82 79 96 100 100 100 100 100 100 100 100 100 100 100 100 100
0 0 4 5 5 5 4 5 5 5 5 5 5 5 5 5 5 5 5 5 3 5 5 5 5 5 5 9 46 60 100 100 100 100 100 100 100 100 100 100 100 100 100
0 0 0 0 4 5 5 5 5 5 5 5 5 5 5 5 5 5 5 2 0 0 5 5 5 5 5 5 5 5 76 100 100 100 100 100 100 100 100 100 100 100 100
0 0 0 0 0 4 5 5 5 5 11 5 6 9 5 6 11 50 18 5 5 2 5 5 5 5 5 4 5 5 36 100 100 100 100 100 100 100 100 100 100 100 100
0 0 0 0 0 5 7 7 5 5 6 5 44 5 5 18 54 33 5 5 0 0 2 5 5 5 5 5 5 5 5 47 41 100 100 100 100 100 100 100 100 99 100
0 4 5 5 5 5 44 24 11 41 31 5 5 5 5 5 5 5 5 0 0 0 2 5 5 5 5 5 5 5 5 5 100 100 100 100 100 100 100 100 100 100 100
5 5 5 6 18 64 22 52 67 6 36 89 36 5 5 5 5 5 4 4 0 0 0 0 5 5 5 5 5 5 5 5 60 100 100 100 100 100 100 100 100 100 100
5 5 8 83 85 23 5 16 5 5 94 100 100 75 6 5 5 5 4 2 0 0 0 0 5 5 5 5 60 63 81 77 78 74 74 100 100 100 100 100 100 100 100
5 59 91 38 6 5 5 5 5 5 84 98 84 73 6 5 5 5 4 5 5 5 4 5 5 5 5 5 20 79 5 26 6 31 77 82 84 100 100 100 100 100 100
23 5 5 5 5 5 5 5 5 5 23 5 4 1 5 0 2 0 0 5 5 5 5 5 5 5 5 5 5 29 42 90 56 66 71 58 82 72 100 100 100 100 100
5 5 5 5 5 5 5 5 5 4 0 3 2 1 4 5 3 2 2 28 5 5 5 5 5 5 5 44 49 76 32 28 46 63 81 57 10 18 66 17 43 99 100
5 5 5 5 5 5 5 5 5 5 5 5 5 5 5 5 5 5 5 5 5 5 5 9 9 5 20 88 40 16 5 5 58 52 100 77 6 5 11 5 5 27 100
5 5 5 5 5 5 5 5 5 4 5 5 15 5 5 5 5 5 5 5 5 19 14 41 5 6 6 63 63 25 5 5 33 7 96 64 9 10 5 5 5 5 5
6 5 5 7 9 5 6 5 5 5 5 5 54 5 5 5 12 44 63 74 57 5 5 5 5 5 7 70 35 34 47 85 26 43 76 25 6 5 5 5 5 5 5
5 5 5 11 64 83 44 40 8 18 48 55 52 56 10 5 6 62 92 97 99 73 5 5 5 5 5 5 5 51 68 47 26 25 72 5 5 5 5 5 5 5 5